CAPE
859 1105 887 1306 616 34 59 69 94 145 187 113 26 25 77 167 216 104 191 268 228 232 333 359 399 320 479 667 888 898 833 833 656 910 1016 1281 1696 2013 2045 2022 1954 1942 1794 1707 1650 1641 1641 1574 1578
1225 868 878 911 149 29 67 84 117 160 235 185 195 169 197 133 145 149 235 228 422 377 469 436 371 570 827 920 904 1055 1006 796 1006 1157 1101 1576 1850 2009 1969 1802 1860 1880 1823 1752 1655 1566 1543 1569 1532
870 794 1274 98 37 23 11 78 127 364 292 179 280 159 156 139 140 275 262 284 359 513 554 666 575 725 799 1014 1085 1285 1281 1382 1512 1302 1325 1746 1912 1939 1825 1578 1685 1810 1784 1619 1480 1474 1516 1505 1615
794 1191 708 27 2 0 0 42 298 436 482 229 153 186 152 203 241 412 540 672 726 732 763 774 1181 1289 1376 1302 1483 1605 1594 1576 1485 1318 1744 1708 1751 1787 1512 1625 1747 1682 1559 1497 1465 1466 1448 1350 1208
984 393 13 0 0 0 9 153 391 486 476 227 180 122 331 435 373 613 805 744 727 764 830 1130 1384 1490 1473 1268 1467 1351 1432 1425 1527 1680 1673 1692 1842 1746 1700 1655 1518 1391 1412 1525 1555 1665 1604 1524 1362
702 104 1 0 0 0 23 144 408 535 585 332 167 405 641 418 693 826 804 707 686 701 901 814 922 1355 1496 1313 1399 1404 1447 1645 1687 1634 1726 1815 1808 1604 1528 1413 1349 1419 1632 1781 1891 1461 1300 1204 1191
310 77 15 1 0 0 0 201 379 564 467 246 127 390 568 524 735 831 784 651 644 987 900 887 1079 1263 1500 1697 1342 1329 1423 1544 1610 1611 1666 1801 1758 1541 1322 1452 1504 1781 1842 1821 1706 1521 975 882 1001
358 53 49 6 6 0 26 176 365 389 529 318 166 243 505 414 577 646 645 687 765 894 1003 1324 1447 1105 712 907 1498 1792 1874 1827 1786 2081 1915 1815 1412 1084 1179 1055 1581 1196 1469 1629 1615 1462 1056 925 1121
80 53 61 29 10 14 135 262 458 475 537 400 383 131 307 326 371 392 490 609 802 1029 1064 1314 1370 1042 985 1056 1425 1707 1775 1917 1998 1787 1657 1027 1060 1202 1229 1290 602 763 1236 1424 1404 1166 1063 913 1104
116 86 54 32 20 13 156 185 545 462 390 415 609 260 362 307 393 439 547 716 795 939 1173 976 852 989 1152 992 1249 1174 1109 995 1123 1178 1492 1201 1080 1364 1321 1228 1139 1169 1207 1194 996 931 912 1143 1296
216 151 19 14 51 36 234 247 254 165 144 298 641 515 438 340 373 457 564 676 748 845 840 876 764 1057 1129 924 1042 1022 1021 955 1137 1547 1536 1263 1301 1474 1563 1501 1587 1677 1465 1227 1426 1483 1363 1501 1532
92 12 0 6 118 31 256 197 122 107 74 181 517 597 403 341 325 372 505 588 743 873 887 976 1099 1059 1042 1050 982 1009 963 982 902 822 1310 1208 1244 1338 1502 1377 1537 1353 1532 1442 1495 1487 1707 1660 1648
9 0 0 0 86 198 276 317 9 145 558 242 558 550 401 382 350 315 334 412 597 812 871 1060 1267 1618 1486 1444 927 798 899 813 784 815 819 946 1157 1363 1572 1571 1153 1248 1220 1509 1483 1513 1545 1664 1584
0 0 0 0 46 284 327 360 12 142 717 377 524 493 466 446 477 475 441 450 525 603 696 944 1213 1327 1450 1411 1291 986 886 740 780 679 748 1251 1322 1408 1226 1003 1304 1250 1259 1593 1605 1437 1494 1566 1580
0 0 5 18 174 370 250 383 373 340 654 497 519 520 409 463 536 761 765 683 713 693 671 820 1187 1294 1530 1497 1505 1327 936 877 876 1107 1395 1578 1564 1361 1425 1104 1000 1014 1508 1615 1471 1375 1465 1262 1098
0 0 8 141 298 387 262 276 366 503 647 614 401 399 339 458 573 698 672 733 750 779 803 879 865 1037 1455 1415 1434 1255 1164 1315 1276 1480 1305 1623 1373 1417 1325 1255 819 946 1587 1518 1321 1238 473 192 111
0 1 6 173 202 285 247 197 419 626 626 673 377 247 289 506 665 803 576 777 880 834 875 941 853 803 1156 1435 1570 1647 1599 1824 1660 1663 1706 1359 1468 1289 1409 1144 1201 1581 1358 1220 1114 398 357 4 0
0 0 2 21 140 251 223 258 342 613 627 613 581 261 237 450 681 853 848 809 1039 1043 1029 1090 954 1093 1308 1425 1849 1660 1615 1769 1579 1723 1739 1662 1380 1396 1468 1116 1203 1119 1377 1179 640 611 33 0 0
5 0 5 38 191 200 159 200 270 597 540 401 506 479 343 451 587 808 959 989 1083 1195 1226 1281 1274 1414 1873 1814 1604 1462 1482 1482 1802 1848 1968 1701 1638 1314 1513 1129 1145 934 1188 857 770 126 0 0 1
0 0 6 83 175 152 130 180 183 209 583 446 351 445 480 453 604 783 947 963 1093 1264 1356 1487 1500 1715 2091 1875 1753 1488 1474 1515 1524 1769 1971 2100 2054 1826 1418 1399 1371 1300 502 1026 541 2 0 0 6
0 0 4 68 164 154 87 86 112 54 162 635 487 314 385 522 445 634 812 958 1026 1245 1487 1579 1815 1788 2162 1946 1946 2076 2039 2045 1888 1683 1727 1669 2045 2005 1926 1595 1374 1527 836 96 53 0 0 0 0
0 0 2 82 100 55 142 22 25 75 160 371 585 276 310 493 656 615 663 823 1018 1106 1458 1684 1955 2153 2121 2317 1838 1849 1579 1165 840 980 815 917 1664 1806 1849 1856 1605 1600 341 10 0 2 0 3 0
0 0 0 51 74 90 108 106 36 77 129 225 461 342 105 146 131 231 381 429 719 961 1150 1549 1957 2302 2254 2277 2230 1943 1989 1263 1332 1364 1560 1286 1509 1844 1418 1894 1522 1151 9 46 68 12 0 0 0
0 0 0 12 69 78 73 62 15 37 145 125 227 380 155 39 54 51 66 125 386 640 838 1170 1858 2349 2438 2293 2492 2351 1927 1788 1268 1717 1542 661 469 1096 1693 1598 1336 412 4 213 70 1 0 10 7
0 0 0 17 21 37 57 23 0 3 6 63 47 209 311 151 15 39 50 42 95 342 675 990 1755 2298 2390 2221 2223 2481 2404 2260 2199 2248 1754 378 176 195 779 1052 614 345 434 318 53 3 0 2 2
0 0 0 5 12 28 11 0 0 46 40 17 9 48 170 337 213 89 185 239 304 476 827 1092 1579 2131 2280 2058 2219 2437 2539 2310 2282 2356 1606 687 62 104 375 565 468 437 405 260 51 0 5 13 8
0 0 0 13 25 21 0 0 0 14 36 0 9 29 76 269 354 340 357 487 542 772 1133 1426 1677 2048 2144 1959 2291 2376 2527 2399 1979 2065 2307 1105 540 144 278 430 421 431 381 142 53 5 24 12 5
0 0 0 0 13 16 0 2 0 1 0 0 0 13 49 104 268 379 477 547 738 891 1137 1490 1835 1853 1952 1867 2026 2050 2279 2433 2338 2366 2155 1151 657 213 179 281 301 309 272 110 175 14 10 21 0
0 0 0 0 0 5 0 0 0 0 0 0 0 0 6 34 136 362 511 589 861 983 1117 1496 1768 1935 1981 1938 1952 2019 2020 2237 2486 2179 1913 1205 511 208 158 194 206 287 171 179 216 92 0 24 54
0 0 0 0 0 0 1 0 0 0 0 0 0 0 0 0 54 174 527 686 797 1108 1172 1371 1602 1824 1983 2044 2277 2129 2069 2200 2243 2007 1272 641 125 12 10 77 12 85 201 254 186 114 2 44 58
CIN
-195 -99 -65 -21 -8 -11 -14 -8 -10 -18 -4 -13 -31 -35 -25 -12 -3 -10 -16 -6 -10 -2 -1 0 -5 -13 -6 -2 0 -1 -9 -6 -25 -3 -11 -5 -1 0 0 -1 0 -2 -5 -5 -1 0 0 -4 -3
-117 -143 -80 -40 -17 -6 -1 -7 -12 -6 -2 -3 -1 -5 -4 -46 -51 -23 -9 -4 -1 -1 -1 -1 -12 -8 -1 -1 0 0 0 -9 -1 -2 -10 -3 0 0 0 -1 -3 -6 -1 -1 -2 -5 -2 -3 -1
-141 -114 -2 -6 -4 -3 -3 -3 -18 -2 -8 -7 -5 -18 -8 -26 -12 -1 -2 0 -1 -1 0 0 -7 -7 -6 -5 -1 0 0 0 0 -4 -8 -2 -2 -1 -2 -16 -17 -6 -4 -8 -14 -10 -6 -2 0
-142 -55 -37 -2 -2 0 0 -2 -1 -1 -2 -14 -13 -32 -40 -17 -17 -3 -1 -1 0 -1 0 -4 0 0 0 0 0 0 0 0 -1 -8 -1 -8 -8 -5 -19 -20 -13 -11 -16 -14 -12 -6 -7 -10 -25
-119 -60 -3 0 0 0 -5 -8 -2 -2 -2 -17 -21 -35 -25 -11 -14 -3 0 0 -1 -1 -1 0 0 0 0 -2 -1 -4 -1 -2 0 -1 -5 -6 -1 -6 -12 -22 -23 -26 -18 -11 -7 -2 -4 -8 -18
-41 -45 -2 0 0 0 -10 -20 -1 -2 -3 -28 -31 -21 -5 -18 -3 -2 -1 -1 -1 -2 -1 -1 -13 0 -1 -2 0 0 0 0 0 -4 -3 -6 -11 -25 -29 -24 -27 -19 -8 -1 -1 -6 -12 -14 -23
-54 -8 -3 -1 0 0 0 -13 -2 -1 -4 -20 -37 -22 -23 -13 -2 -1 -1 -1 -2 -2 -2 0 -1 -1 0 0 0 0 -1 -1 -1 -8 -11 -8 -13 -28 -32 -20 -15 -6 -2 -2 -4 -7 -23 -31 -24
-58 -17 -2 -2 -1 0 -23 -23 -12 -1 -2 -39 -31 -82 -52 -44 -18 -3 -1 0 -1 -1 -4 0 0 -1 -5 -2 0 0 0 0 -1 0 -4 -9 -28 -39 -41 -29 -20 -30 -16 -9 -10 -13 -28 -30 -22
-106 -8 -2 -2 -4 -18 -46 -35 -32 -27 -40 -37 -35 -43 -70 -97 -67 -29 -13 -3 -1 -1 -2 0 -1 0 -1 0 -1 0 -1 0 -1 -5 -16 -42 -2 -1 -2 -17 -60 -57 -30 -18 -15 -25 -34 -32 -25
-58 -6 -4 -4 -3 -12 -34 -22 -44 -35 -45 -37 -32 -46 -93 -120 -84 -52 -27 -12 -6 -2 -2 -2 -2 -1 -1 -1 -1 -1 -3 -5 -2 -1 0 -4 -1 -1 -10 -17 -31 -31 -26 -17 -26 -30 -32 -28 0
-16 -5 -8 -13 -15 -12 -19 -26 -42 -40 -46 -40 -39 -72 -94 -114 -84 -52 -29 -16 -13 -8 -3 -2 -5 -1 0 -1 0 -2 0 -1 -1 -1 -1 0 -1 0 -1 0 -1 0 -11 -1 -4 -3 -1 -1 0
-30 -22 0 -12 -22 -8 -10 -19 -33 -44 -31 -56 -57 -76 -105 -100 -99 -76 -48 -41 -29 -20 -8 -2 -4 -8 -3 0 -1 -1 0 0 0 -3 -9 -5 -2 0 -1 -1 -1 -9 0 -3 -1 0 -1 -1 0
-44 0 0 0 -26 -9 -10 -15 -18 -43 -64 -62 -89 -98 -91 -82 -80 -90 -82 -73 -58 -33 -22 -11 -4 -1 -1 -1 -2 -1 -2 -2 -1 -2 -9 -6 -1 -1 0 -1 -1 -1 -1 -1 0 -1 -1 -1 0
0 0 0 0 -15 -16 -17 -19 -12 -33 -72 -80 -106 -110 -103 -80 -86 -92 -100 -100 -94 -80 -50 -15 -9 -9 -6 -4 -5 -11 -10 0 -6 -3 -1 -13 -5 -1 -8 -4 -2 -1 -1 -2 -1 -1 -1 -1 -1
0 0 -27 -37 -28 -25 -12 -24 -17 -38 -69 -70 -100 -113 -111 -102 -98 -81 -78 -84 -79 -71 -55 -28 -11 -7 -6 -4 -3 -5 -2 -1 -1 -1 0 -1 -13 -15 -4 -3 -5 -1 -2 -1 0 0 -1 0 -2
0 0 -3 -24 -48 -37 -18 -3 -30 -42 -46 -54 -77 -111 -122 -113 -91 -86 -93 -84 -76 -62 -60 -37 -17 -7 -5 -6 -6 -3 -1 -1 0 -2 -1 0 -2 -1 -2 -3 -9 -2 -1 -1 -1 -4 -9 -83 -129
0 -2 -3 -26 -48 -60 -27 -3 -24 -43 -26 -29 -61 -83 -112 -107 -89 -79 -98 -78 -55 -68 -57 -39 -39 -28 -12 -8 -1 -1 -1 -1 0 -2 0 -2 0 -4 -2 -7 -1 -1 -2 -2 0 -28 -45 -73 0
0 0 -2 -4 -48 -54 -27 -3 -29 -35 -20 -20 -32 -68 -82 -94 -93 -78 -71 -66 -37 -35 -40 -33 -30 -17 -7 -1 0 -3 -5 -3 -1 -1 -3 0 -1 0 -1 -1 -2 -7 -2 -1 -1 -7 -96 0 0
-3 0 -4 -2 -24 -35 -16 -16 -11 -44 -26 -25 -16 -52 -79 -71 -66 -55 -45 -31 -22 -18 -27 -22 -13 -11 -1 -1 -2 -2 -1 -6 -1 -1 0 -1 0 -3 0 -1 -2 -6 -4 -1 -1 -106 0 0 -2
0 0 -4 -6 -38 -32 -7 -20 -23 -31 -41 -48 -54 -58 -68 -58 -45 -42 -35 -32 -22 -19 -17 -14 -17 -9 -3 0 0 -1 -1 -1 -1 -1 0 -1 0 0 0 -1 0 -3 -6 0 -16 -58 0 0 -152
0 0 -2 -5 -28 -32 -9 -11 -19 -60 -57 -57 -74 -90 -94 -86 -94 -76 -65 -47 -34 -21 -19 -13 -22 -18 -7 -6 -1 -1 -1 -1 -1 -1 -1 -1 0 0 -1 0 0 -1 -8 -116 -89 -17 0 0 0
0 0 -1 -3 -8 -5 -20 -6 -3 -6 -43 -81 -75 -110 -119 -119 -110 -92 -100 -85 -55 -41 -18 -22 -28 -22 -14 -6 -1 -2 -1 -1 -5 -6 -13 -13 -1 0 0 0 -1 -4 -45 -248 0 -48 0 -151 0
0 0 0 -3 -4 -5 -4 -4 -3 -6 -15 -34 -68 -82 -125 -128 -160 -161 -159 -165 -130 -83 -65 -36 -33 -28 -24 -8 -12 -2 -4 -3 -5 -11 -7 -25 -15 -5 -16 0 -1 -5 -161 -163 -153 -249 0 0 -5
0 0 0 -4 -8 -6 -6 -5 -3 -21 -18 -15 -33 -56 -109 -124 -138 -153 -168 -178 -178 -158 -125 -89 -56 -42 -34 -21 -15 -10 -8 -6 -16 -6 -11 -73 -90 -53 -10 -12 -18 -88 -83 -83 -69 -77 0 -135 -94
0 0 0 -5 -4 -4 -6 -4 0 -3 -6 -14 -15 -39 -67 -99 -110 -134 -174 -206 -235 -199 -178 -137 -85 -62 -48 -38 -33 -33 -21 -7 -3 -1 -9 -86 -114 -129 -80 -39 -81 -110 -76 -61 -76 -42 0 -51 -1
0 0 0 -4 -4 -6 -5 0 0 -52 -27 -19 -20 -28 -33 -79 -111 -150 -170 -192 -197 -176 -156 -154 -130 -102 -76 -74 -65 -50 -30 -6 -1 -1 -4 -66 -121 -117 -97 -100 -71 -66 -78 -86 -130 0 0 -1 -1
0 0 0 -5 -7 -6 0 -1 0 -78 -31 0 -18 -19 -36 -49 -86 -117 -147 -169 -172 -175 -157 -162 -166 -143 -107 -101 -75 -69 -39 -16 -6 -2 -6 -62 -112 -130 -120 -105 -93 -43 -51 -98 -115 -34 -89 -1 0
0 0 0 0 -6 -8 0 -4 0 -21 0 0 -1 -18 -22 -41 -75 -96 -121 -156 -179 -173 -162 -169 -179 -176 -148 -110 -115 -101 -68 -31 -14 -28 -33 -59 -138 -201 -213 -142 -122 -88 -51 -99 -51 -114 -70 -73 0
0 0 0 0 0 -8 0 0 0 0 0 0 0 0 -9 -25 -41 -75 -93 -121 -168 -168 -141 -163 -168 -176 -157 -158 -148 -126 -114 -72 -40 -57 -83 -134 -182 -229 -234 -206 -134 -93 -67 -79 -41 -62 0 -70 -37
0 0 0 0 0 -1 -2 0 0 0 0 0 0 0 0 0 -39 -58 -108 -162 -144 -192 -150 -140 -143 -168 -178 -171 -169 -151 -127 -97 -93 -103 -167 -230 -335 -339 -330 -178 -200 -167 -91 -35 -37 -39 -75 -20 -6
Wind_Speed
26 23 18 18 19 19 12 14 24 21 15 6 7 10 6 7 6 8 21 21 27 26 30 34 36 37 36 34 32 33 34 33 33 30 26 24 16 7 5 8 6 5 5 6 7 7 8 7 7
23 19 16 15 19 13 6 14 19 6 3 2 3 8 8 8 8 14 10 23 26 30 31 34 34 34 33 33 34 34 34 33 32 30 26 19 15 8 9 11 6 6 7 7 8 8 8 8 8
21 18 14 15 13 8 10 10 5 3 7 13 10 7 8 11 18 3 19 26 22 16 25 31 32 33 33 33 33 32 32 31 31 29 19 21 17 16 15 12 9 8 8 8 9 10 10 10 10
19 16 14 14 14 7 6 4 2 5 10 13 6 4 3 9 4 5 21 25 23 26 29 29 30 30 31 31 31 30 30 31 30 27 26 21 20 18 16 12 10 10 9 9 10 11 12 11 11
16 14 11 12 13 5 6 3 20 8 11 12 4 1 5 11 8 20 23 25 25 24 21 27 29 29 30 30 30 30 26 28 29 27 25 23 20 19 16 12 11 10 10 10 10 10 11 12 13
15 14 8 16 15 9 6 7 7 6 6 5 11 14 3 23 26 25 26 28 25 22 26 25 29 31 31 31 30 29 28 28 27 25 23 22 19 17 16 15 14 12 11 11 10 10 10 11 12
15 16 11 14 16 15 13 6 8 9 6 5 16 10 8 19 23 23 25 25 25 23 21 26 30 31 31 30 29 28 27 26 25 23 23 21 19 17 15 14 13 12 11 10 10 10 11 11 12
17 16 21 18 21 17 13 3 6 7 6 6 22 15 20 20 25 23 25 25 24 20 25 28 30 30 29 29 28 27 26 25 24 23 22 20 18 17 16 14 14 11 11 11 10 10 13 12 19
18 18 19 18 18 16 18 12 12 7 14 24 21 16 18 28 27 26 28 28 26 28 30 28 28 28 28 28 27 26 25 24 23 22 20 18 17 16 14 12 11 11 11 11 11 11 12 13 16
21 17 13 11 10 15 17 13 13 17 17 21 10 13 22 29 30 28 29 30 30 30 30 29 29 29 29 27 26 24 23 22 21 20 19 17 16 15 14 12 12 11 11 12 12 12 13 13 14
22 17 13 13 9 14 16 12 10 5 19 24 27 24 28 30 32 31 30 30 31 30 30 30 29 29 27 25 24 23 22 21 20 19 19 17 15 15 14 13 13 12 13 11 12 12 12 13 10
22 17 15 9 15 16 17 16 11 23 4 25 27 27 29 32 33 33 32 32 31 31 30 29 28 27 26 24 23 22 21 20 19 19 18 17 16 15 14 14 13 12 11 11 11 10 10 10 9
24 6 19 14 15 16 15 17 6 24 19 27 28 31 32 34 34 33 32 31 31 30 30 29 28 26 25 24 22 21 21 20 19 18 17 17 16 15 15 14 13 12 12 11 10 10 9 9 8
20 22 17 21 14 15 18 17 25 26 22 27 29 31 32 33 34 33 32 31 30 30 28 28 26 25 24 23 21 21 20 19 19 18 17 16 16 15 14 14 13 12 12 11 10 9 9 8 7
11 7 10 8 11 12 22 19 26 27 27 28 30 32 32 32 32 32 31 31 30 28 27 26 25 23 23 22 21 21 19 19 18 19 18 18 17 17 15 14 14 12 10 10 9 8 6 6 6
8 26 17 6 12 4 23 20 26 24 29 30 30 31 31 31 30 29 29 30 28 28 26 24 23 21 21 20 20 20 19 19 18 18 17 17 16 16 15 13 14 11 10 9 7 7 7 7 7
22 25 25 6 14 4 25 22 14 26 29 30 31 31 31 31 30 29 29 28 26 25 24 23 21 20 19 19 19 20 19 19 18 16 16 15 15 13 13 12 11 8 7 7 7 10 15 14 10
15 32 11 15 10 3 28 23 14 25 28 29 30 31 31 31 31 28 27 25 24 21 20 19 17 17 17 17 18 19 19 20 18 14 13 13 13 12 9 8 7 6 7 7 13 18 23 18 20
27 18 30 27 7 16 31 30 28 26 28 30 29 31 31 30 28 28 27 26 24 20 16 16 15 15 14 13 16 18 17 14 15 15 11 11 9 10 8 7 6 7 7 13 15 19 19 21 20
36 12 30 10 16 25 29 32 31 30 30 29 30 30 31 30 29 27 26 26 25 23 21 19 20 17 15 13 16 17 11 13 11 9 7 6 5 6 6 6 8 9 12 14 17 20 21 19 19
23 34 22 17 17 29 27 33 33 30 19 31 29 30 30 30 29 27 26 25 24 24 23 22 21 20 20 22 12 6 5 7 7 6 6 7 6 7 8 9 10 11 12 16 18 19 21 21 19
19 21 32 23 21 36 22 34 14 14 5 11 17 23 26 22 22 25 25 23 22 22 22 23 23 21 20 19 16 11 8 7 6 9 11 11 10 10 10 10 10 11 13 17 16 18 19 19 19
19 24 31 33 30 36 19 34 33 18 12 5 10 15 20 20 19 19 20 22 22 20 20 20 21 20 20 15 14 8 9 4 5 8 10 9 10 9 9 10 11 12 14 15 16 17 17 17 17
36 26 26 31 36 43 45 33 37 25 18 19 7 11 15 15 15 17 17 16 16 18 19 20 19 19 17 13 12 11 9 7 5 5 7 8 8 8 8 8 9 10 13 14 16 17 17 17 17
33 27 31 37 36 43 20 45 34 22 18 16 16 5 12 14 17 17 19 18 20 21 21 19 16 18 16 15 14 15 13 10 7 4 4 7 7 8 8 7 8 10 11 14 16 16 18 17 17
35 30 32 36 39 33 39 42 39 33 38 36 28 19 5 17 20 22 22 24 24 23 23 20 16 15 14 16 17 15 13 10 8 5 3 4 6 8 8 6 9 10 10 11 13 13 15 15 15
38 44 38 42 33 42 37 32 44 32 31 32 28 12 6 11 19 22 23 26 25 25 24 21 20 20 20 19 16 14 12 15 13 9 3 3 3 6 5 5 8 10 9 10 11 12 12 14 15
46 39 43 47 49 49 46 39 26 23 20 17 19 13 5 7 12 17 21 26 26 25 25 25 25 24 22 19 20 20 17 16 12 10 9 4 1 2 4 6 9 9 10 11 10 10 11 11 14
41 47 48 47 48 49 45 47 32 26 23 24 26 17 15 13 8 11 16 22 24 26 25 25 25 25 25 24 20 18 16 14 12 11 8 4 3 1 1 5 10 13 13 13 9 12 14 12 13
39 43 43 47 45 48 54 48 40 36 32 41 40 33 30 27 18 13 10 16 21 25 26 23 25 27 27 20 17 16 14 13 14 13 12 5 3 3 2 5 12 5 8 12 8 7 13 13 13
Wind_Direction
121 134 159 179 166 164 49 199 138 145 174 242 234 210 303 279 273 41 82 81 88 82 92 102 118 122 123 138 141 136 134 135 133 140 152 158 179 204 230 209 236 290 276 262 291 269 286 277 282
133 142 162 201 172 192 264 206 80 268 331 255 307 244 291 341 20 81 77 90 93 97 102 115 130 133 134 133 127 126 124 123 130 142 153 174 183 213 205 191 257 281 253 262 287 281 277 274 282
146 160 187 180 202 274 20 228 266 283 240 213 241 282 263 58 79 104 85 98 90 73 90 116 131 126 126 121 120 117 114 117 130 147 177 164 177 178 176 189 207 224 240 266 280 285 274 275 282
156 174 182 174 28 252 5 270 334 262 226 219 289 272 32 59 48 200 92 101 94 99 108 105 113 112 114 116 115 109 111 120 130 148 146 167 165 170 174 195 208 208 221 251 267 279 279 274 261
182 200 178 6 18 301 10 322 183 249 223 212 323 194 53 59 71 91 96 102 100 95 84 102 108 109 113 112 111 112 98 116 128 132 150 152 160 157 171 198 211 217 225 235 244 250 260 270 278
199 204 336 30 36 7 339 9 272 303 265 277 66 78 261 94 103 104 106 112 102 92 103 99 113 124 127 126 124 121 128 132 143 152 154 157 170 173 171 162 166 182 208 224 227 234 242 247 269
212 195 360 21 41 45 49 357 344 24 13 280 87 61 69 100 106 104 110 108 105 99 95 109 125 132 134 130 136 144 144 148 148 150 151 151 160 162 166 179 175 179 185 200 211 224 260 256 280
201 187 135 75 78 44 46 34 313 5 1 52 111 169 110 111 115 109 112 113 109 99 113 121 135 130 131 135 146 146 146 149 149 151 152 155 156 154 147 159 154 186 191 194 171 156 129 140 16
202 176 129 92 78 55 82 43 53 278 77 172 188 93 107 121 120 118 124 125 121 128 141 132 129 132 140 143 142 146 148 150 153 150 151 153 161 155 159 171 175 189 196 190 189 166 124 121 85
182 200 260 298 357 69 85 57 63 85 91 109 100 78 113 128 132 130 132 134 140 139 147 144 146 147 152 152 148 155 151 150 153 155 153 163 162 165 176 176 172 169 166 160 142 140 134 125 96
184 203 277 283 3 79 88 57 40 322 110 132 137 119 128 134 142 141 141 143 147 147 153 154 158 155 156 156 156 158 159 158 156 163 166 168 172 162 170 172 163 164 138 175 146 132 135 119 140
184 216 253 360 99 104 102 89 55 143 130 144 149 132 133 144 152 154 151 154 154 157 163 159 158 160 163 160 162 162 162 162 167 160 165 174 174 163 173 175 181 158 174 173 168 174 163 161 145
185 18 221 211 111 111 99 110 144 148 197 165 139 141 147 156 160 160 161 162 161 166 166 164 164 163 165 167 164 167 169 165 170 166 162 177 178 174 174 181 178 178 176 170 167 172 183 192 173
216 254 293 188 112 115 122 113 171 174 182 139 145 150 154 159 165 168 170 169 168 169 167 167 166 164 166 167 166 168 170 172 174 175 171 166 177 172 177 182 179 182 186 182 160 172 186 175 176
288 359 349 77 101 100 142 134 181 162 173 154 156 159 162 164 165 169 170 172 171 170 168 168 165 161 163 165 166 170 169 168 172 174 174 184 188 193 192 187 196 190 146 157 137 164 133 123 127
143 197 149 87 111 9 144 149 166 143 164 169 163 165 167 168 167 168 171 174 173 174 168 165 163 161 163 164 165 171 170 170 170 178 185 190 193 199 196 188 192 181 168 154 117 120 85 65 64
167 179 176 106 137 316 159 217 108 159 169 171 171 170 172 173 174 172 172 171 168 166 164 164 162 160 160 162 165 170 175 175 182 173 184 183 186 181 182 182 185 156 149 122 73 46 20 19 33
159 202 145 142 144 232 173 218 249 166 174 177 177 179 177 177 178 172 170 169 167 159 158 156 153 156 153 154 163 171 178 187 188 177 174 170 181 179 155 138 128 99 90 79 26 3 345 3 358
245 258 217 223 269 159 199 215 220 218 192 189 179 180 181 180 176 174 174 171 168 163 156 157 155 151 147 146 155 164 168 161 174 187 166 173 161 173 157 144 83 73 86 19 9 358 359 354 355
230 248 182 257 258 239 232 222 231 223 199 193 189 183 186 185 181 176 175 176 175 173 171 167 169 163 158 150 157 164 145 161 157 143 138 115 103 98 88 81 49 40 21 15 3 355 349 358 358
186 192 175 246 259 248 251 238 235 234 222 207 191 191 187 187 184 181 180 180 179 178 177 175 174 171 170 173 151 114 93 110 111 111 84 63 60 42 35 30 32 28 23 4 1 355 348 342 356
199 195 246 253 252 228 255 223 275 275 199 172 173 178 182 178 180 182 182 182 182 180 178 178 176 173 172 169 166 152 132 116 55 27 13 11 18 27 26 35 35 32 20 3 10 6 352 351 348
213 253 251 250 250 245 258 242 247 273 279 217 183 178 178 178 177 178 179 180 181 179 178 175 175 174 173 168 170 160 158 115 50 37 16 44 37 56 48 33 28 18 12 12 10 6 360 358 356
239 257 258 254 248 209 223 241 239 256 273 279 273 195 188 184 181 178 177 174 177 178 179 176 175 176 174 173 173 175 165 149 103 61 46 53 53 58 57 44 36 25 12 9 4 1 356 355 355
237 240 246 245 247 240 235 236 221 270 276 286 291 234 194 190 185 181 177 173 173 175 177 179 180 180 179 177 176 173 172 164 150 108 47 19 27 21 28 32 26 22 9 0 356 358 348 350 347
231 227 243 245 247 254 249 239 212 262 258 264 280 290 207 185 187 186 183 181 179 178 178 181 183 190 188 180 178 174 171 166 162 148 101 66 19 2 8 13 1 1 7 1 359 2 353 353 355
233 236 243 251 257 252 254 259 246 261 270 270 273 281 192 185 186 188 188 187 184 183 183 183 183 183 182 181 180 181 179 175 167 157 137 120 67 8 15 13 352 343 352 353 357 357 358 354 353
240 239 238 243 246 246 247 254 264 266 269 274 280 286 217 195 191 193 193 190 188 186 185 184 184 185 183 183 182 182 181 178 176 172 169 145 108 21 358 341 340 337 334 338 345 350 352 354 349
235 241 238 245 246 248 250 247 254 264 266 265 268 287 289 293 209 200 202 195 191 188 186 185 185 185 184 184 186 188 189 189 188 191 197 183 171 192 337 340 343 319 315 316 327 330 333 344 346
240 241 239 242 244 250 249 251 247 256 263 248 249 263 276 282 286 279 228 196 190 189 188 187 186 185 187 188 192 196 199 202 203 203 206 210 239 193 241 323 338 283 283 303 314 326 326 333 337